FW7205 Weather Reports


time (UTC)temp
F
wind
direction
speed
knots
gust
knots
rain 1hr
in
rain 24hr
in
rain mn
in
humidity
%
barometer
mb
20260906100104 78 0 0.0 0.9 0.00 0.12 0.00 91 1011.1
20260906094605 78 0 0.0 0.0 0.00 0.12 0.00 90 1010.9
20260906093105 78 0 0.0 0.0 0.00 0.12 0.00 90 1011.1
20260906091607 78 0 0.0 0.0 0.00 0.12 0.00 90 1011.0
20260906090105 78 0 0.0 0.0 0.00 0.12 0.00 90 1010.8
20260906084615 78 0 0.0 0.0 0.00 0.12 0.00 90 1010.8
20260906083106 78 0 0.0 0.0 0.00 0.12 0.00 90 1010.9
20260906081605 78 0 0.0 0.0 0.00 0.12 0.00 90 1011.0
20260906080104 78 0 0.0 0.0 0.00 0.12 0.00 90 1011.3
20260906074602 78 0 0.0 0.0 0.00 0.12 0.00 90 1011.3
20260906073105 78 0 0.0 0.9 0.00 0.12 0.00 90 1011.3
20260906071605 78 0 0.0 0.0 0.00 0.12 0.00 90 1011.3
20260906070105 78 0 0.0 0.0 0.00 0.12 0.00 89 1011.5
20260906064604 78 0 0.0 0.0 0.00 0.12 0.00 89 1011.7
20260906063104 78 0 0.0 0.9 0.00 0.12 0.00 89 1011.4
20260906061612 78 0 0.0 0.0 0.00 0.12 0.00 89 1011.7
20260906060112 78 0 0.0 0.9 0.00 0.12 0.00 89 1011.8
20260906054641 78 0 0.0 0.9 0.00 0.12 0.00 89 1011.6
20260906053105 78 0 0.0 0.9 0.00 0.12 0.00 89 1011.7
20260906051605 78 0 0.0 0.9 0.00 0.12 0.00 88 1011.8
20260906050108 78 0 0.0 0.9 0.00 0.12 0.00 88 1011.7
20260906044604 78 0 0.0 0.9 0.00 0.12 0.12 88 1011.9
20260906043104 78 0 0.0 0.9 0.00 0.12 0.12 87 1011.8
20260906041605 78 0 0.0 0.0 0.00 0.12 0.12 87 1011.9
20260906040121 79 0 0.0 0.0 0.00 0.12 0.12 87 1011.8
20260906034604 79 0 0.0 0.9 0.00 0.12 0.12 87 1011.7
20260906033126 79 0 0.0 0.9 0.00 0.12 0.12 86 1011.5
20260906031618 79 0 0.0 1.7 0.00 0.12 0.12 86 1011.7
20260906030104 79 0 0.0 0.9 0.00 0.12 0.12 85 1011.9
20260906024608 80 0 0.0 0.9 0.00 0.12 0.12 84 1011.6
20260906023102 80 0 0.0 1.7 0.00 0.12 0.12 83 1011.6
20260906021609 80 0 0.0 2.6 0.00 0.12 0.12 82 1011.4
20260906020106 80 0 0.0 0.0 0.00 0.12 0.12 80 1011.0
20260906014603 81 0 0.0 0.0 0.00 0.12 0.12 79 1010.7
20260906013112 81 0 0.0 0.9 0.00 0.12 0.12 78 1010.3
20260906011606 82 0 0.0 1.7 0.00 0.12 0.12 77 1010.3
20260906010103 82 0 0.9 3.5 0.00 0.12 0.12 76 1010.5
20260906004607 83 83 0.0 2.6 0.00 0.12 0.12 74 1010.5
20260906003104 83 0 0.0 1.7 0.00 0.12 0.12 73 1010.7
20260906001602 84 0 0.0 2.6 0.00 0.12 0.12 72 1011.0
20260906000109 84 78 0.9 2.6 0.00 0.12 0.12 70 1010.8
20260905234607 85 76 0.9 2.6 0.00 0.12 0.12 69 1010.8
20260905233104 86 71 0.9 3.5 0.00 0.12 0.12 67 1010.9
20260905231601 87 72 0.9 2.6 0.00 0.12 0.12 64 1010.6
20260905230128 89 84 0.9 3.5 0.00 0.12 0.12 64 1010.3
20260905224611 91 86 1.7 3.5 0.00 0.12 0.12 62 1010.2
20260905223109 92 66 0.9 3.5 0.00 0.12 0.12 61 1010.2
20260905221605 92 67 0.0 1.7 0.00 0.12 0.12 59 1010.4
20260905220106 92 0 0.0 1.7 0.00 0.12 0.12 59 1010.1
20260905214600 92 0 0.0 0.0 0.00 0.12 0.12 60 1010.1
20260905213115 92 0 0.0 0.0 0.00 0.12 0.12 63 1010.3
20260905211609 92 0 0.0 0.9 0.00 0.12 0.12 61 1010.4
20260905210108 91 0 0.0 2.6 0.00 0.12 0.12 62 1010.6
20260905204611 91 0 0.0 0.9 0.00 0.12 0.12 62 1010.7
20260905203126 88 0 0.0 0.0 0.00 0.12 0.12 76 1010.9
20260905201610 85 0 0.0 0.0 0.12 0.12 0.12 80 1010.8
20260905200121 86 0 0.0 0.0 0.12 0.12 0.12 80 1011.2
20260905194607 87 0 0.0 0.0 0.12 0.12 0.12 75 1011.6
20260905193104 90 0 0.0 0.9 0.12 0.12 0.12 67 1011.6
20260905191606 94 0 0.9 3.5 0.00 0.00 0.00 56 1011.7
20260905190106 94 0 0.0 2.6 0.00 0.00 0.00 54 1011.7
20260905184611 93 182 0.0 6.1 0.00 0.00 0.00 56 1011.9
20260905183101 94 0 0.0 3.5 0.00 0.00 0.00 53 1012.3
20260905181603 96 99 0.0 2.6 0.00 0.00 0.00 52 1012.3
20260905180106 96 76 0.0 1.7 0.00 0.00 0.00 52 1012.8
20260905174603 96 0 0.0 1.7 0.00 0.00 0.00 52 1012.9
20260905173106 94 0 0.9 2.6 0.00 0.00 0.00 55 1013.3
20260905171603 93 0 0.0 3.5 0.00 0.00 0.00 56 1013.3
20260905170123 92 0 0.0 2.6 0.00 0.00 0.00 61 1013.3
20260905164606 91 70 0.0 1.7 0.00 0.00 0.00 62 1013.7
20260905163106 88 0 0.0 0.9 0.00 0.00 0.00 69 1013.6
20260905161604 87 0 0.0 0.9 0.00 0.00 0.00 69 1013.6
20260905154613 86 0 0.0 0.9 0.00 0.00 0.00 75 1013.5
20260905153104 85 0 0.0 1.7 0.00 0.00 0.00 78 1013.4
20260905151622 83 0 0.0 0.0 0.00 0.00 0.00 82 1013.7
20260905144603 81 0 0.0 3.5 0.00 0.00 0.00 90 1013.4
20260905143106 80 0 0.0 0.0 0.00 0.00 0.00 92 1013.5
20260905141605 80 0 0.0 0.0 0.00 0.00 0.00 93 1013.6
20260905134603 78 0 0.0 0.0 0.00 0.00 0.00 93 1013.3
20260905133101 77 0 0.0 0.0 0.00 0.00 0.00 93 1013.3
20260905131608 76 0 0.0 0.0 0.00 0.00 0.00 92 1013.2
20260905124609 76 0 0.0 0.0 0.00 0.00 0.00 91 1012.8
20260905123105 76 0 0.0 0.0 0.00 0.00 0.00 91 1012.9
20260905121601 76 0 0.0 0.0 0.00 0.00 0.00 91 1012.7
20260905120100 76 0 0.0 0.0 0.00 0.00 0.00 91 1012.5
20260905114604 76 0 0.0 0.0 0.00 0.00 0.00 91 1012.6
20260905113101 77 0 0.0 0.0 0.00 0.00 0.00 90 1012.1
20260905111604 77 0 0.0 0.0 0.00 0.00 0.00 90 1012.1
20260905110110 77 0 0.0 0.0 0.00 0.00 0.00 90 1012.2
20260905104604 77 0 0.0 0.0 0.00 0.00 0.00 90 1011.9
20260905103102 77 0 0.0 0.0 0.00 0.00 0.00 90 1012.0
20260905101610 77 0 0.0 0.0 0.00 0.00 0.00 89 1012.1